EZY86PW EGAA-EGNM

Flight info

Callsign EZY86PW
Flight time N/A
Altitude 25000
Route LISBO L603 PEPOD Q38 GIGTO UQ4 WAL DCT POL
Aircraft A320/M-SDE2E3FGHIRWXY/LB1

Departure

Time 2026-05-04 09:34
Airport Belfast International Airport (EGAA)

Arrival

Time N/A
Airport Leeds Bradford Airport (EGNM)
Time Latitude Longitude Altitude Speed Heading
2026-05-04 09:22 54.66167 -6.21326 277 ft 4 kts 214°
2026-05-04 09:22 54.66189 -6.21313 276 ft 3 kts 158°
2026-05-04 09:22 54.66196 -6.21318 277 ft 0 kts 155°
2026-05-04 09:28 54.66193 -6.21315 276 ft 3 kts 155°
2026-05-04 09:28 54.66153 -6.21284 275 ft 9 kts 155°
2026-05-04 09:28 54.66103 -6.21247 272 ft 8 kts 158°
2026-05-04 09:28 54.66073 -6.21227 272 ft 1 kts 159°
2026-05-04 09:29 54.66066 -6.21223 272 ft 0 kts 160°
2026-05-04 09:30 54.66060 -6.21218 272 ft 2 kts 160°
2026-05-04 09:30 54.66047 -6.21168 272 ft 8 kts 86°
2026-05-04 09:30 54.66078 -6.21040 272 ft 14 kts 65°
2026-05-04 09:31 54.66117 -6.20905 274 ft 15 kts 63°
2026-05-04 09:31 54.66168 -6.20705 272 ft 21 kts 65°
2026-05-04 09:31 54.66237 -6.20450 272 ft 25 kts 64°
2026-05-04 09:31 54.66312 -6.20171 272 ft 26 kts 65°
2026-05-04 09:32 54.66382 -6.19910 272 ft 16 kts 65°
2026-05-04 09:32 54.66391 -6.19795 272 ft 7 kts 101°
2026-05-04 09:34 54.66173 -6.20001 273 ft 67 kts 245°
2026-05-04 09:34 54.65884 -6.21081 273 ft 129 kts 245°
2026-05-04 09:34 54.65448 -6.22752 362 ft 168 kts 245°
2026-05-04 09:34 54.64935 -6.24369 1253 ft 149 kts 243°
2026-05-04 09:35 54.64427 -6.26048 1600 ft 169 kts 246°
2026-05-04 09:35 54.63833 -6.27950 1922 ft 193 kts 230°
2026-05-04 09:35 54.62568 -6.29024 2266 ft 224 kts 186°
2026-05-04 09:35 54.60990 -6.28291 2693 ft 256 kts 147°
2026-05-04 09:37 54.52689 -6.09372 9043 ft 298 kts 131°
2026-05-04 09:37 54.51350 -6.06619 9920 ft 302 kts 131°
2026-05-04 09:38 54.49975 -6.03786 10452 ft 320 kts 131°
2026-05-04 09:38 54.48500 -6.00750 10858 ft 340 kts 131°
2026-05-04 09:38 54.46969 -5.97591 11574 ft 347 kts 131°
2026-05-04 09:38 54.45417 -5.94385 12364 ft 351 kts 131°
2026-05-04 09:39 54.43845 -5.91137 13121 ft 355 kts 131°
2026-05-04 09:39 54.42255 -5.87855 13866 ft 359 kts 131°
2026-05-04 09:39 54.40668 -5.84585 14572 ft 362 kts 131°
2026-05-04 09:39 54.39023 -5.81208 15272 ft 367 kts 131°
2026-05-04 09:40 54.37398 -5.77879 15947 ft 370 kts 131°
2026-05-04 09:40 54.35736 -5.74483 16617 ft 374 kts 131°
2026-05-04 09:40 54.34054 -5.71050 17257 ft 377 kts 131°
2026-05-04 09:40 54.32359 -5.67591 17886 ft 381 kts 131°
2026-05-04 09:41 54.30647 -5.64103 18502 ft 384 kts 131°
2026-05-04 09:42 54.19026 -5.37817 22419 ft 408 kts 126°
2026-05-04 09:43 54.17383 -5.33858 22931 ft 411 kts 127°
2026-05-04 09:43 54.15710 -5.29882 23431 ft 414 kts 127°
2026-05-04 09:43 54.14016 -5.25895 23912 ft 417 kts 127°
2026-05-04 09:43 54.12304 -5.21888 24380 ft 420 kts 127°
2026-05-04 09:44 54.10577 -5.17860 24813 ft 423 kts 127°
2026-05-04 09:44 54.08837 -5.13809 24977 ft 423 kts 127°
2026-05-04 09:44 54.07131 -5.09834 25012 ft 409 kts 127°
2026-05-04 09:46 53.95596 -4.83058 25014 ft 400 kts 128°
2026-05-04 09:46 53.93949 -4.79256 25005 ft 400 kts 128°
2026-05-04 09:46 53.92302 -4.75454 25011 ft 400 kts 128°
2026-05-04 09:47 53.90655 -4.71664 24999 ft 399 kts 128°
2026-05-04 09:47 53.89001 -4.67873 24998 ft 399 kts 128°
2026-05-04 09:49 53.77421 -4.41448 25004 ft 399 kts 128°
2026-05-04 09:49 53.75762 -4.37682 25002 ft 399 kts 128°
2026-05-04 09:49 53.74102 -4.33924 25004 ft 399 kts 128°
2026-05-04 09:51 53.64142 -4.11439 24992 ft 399 kts 125°
2026-05-04 09:51 53.63194 -4.08786 24996 ft 400 kts 118°